This is the latest recevied weather packets stored in our database for station/object WA9AFM-10. If no packets are shown the sender has not sent any weather packets the latest 10 day(s).
| Time | Temp. | Humidity | Pressure | Rain* | Wind** | Luminosity | Snow |
|---|---|---|---|---|---|---|---|
| 1778209908 | 17.22° C | 54% | 1009.7 hPa | 0 mm | - | - | - |
| 1778208109 | 17.22° C | 53% | 1009.6 hPa | 0 mm | - | - | - |
| 1778206309 | 17.78° C | 50% | 1009.4 hPa | 0 mm | - | - | - |
| 1778204508 | 18.89° C | 46% | 1009.2 hPa | 0 mm | - | - | - |
| 1778202710 | 20.56° C | 43% | 1009 hPa | 0 mm | - | - | - |
| 1778199108 | 23.33° C | 34% | 1008.7 hPa | 0 mm | - | - | - |
| 1778197309 | 25° C | 32% | 1008.7 hPa | 0 mm | - | - | - |
| 1778195509 | 25.56° C | 30% | 1009.1 hPa | 0 mm | - | - | - |
| 1778193709 | 25.56° C | 30% | 1009.3 hPa | 0 mm | - | - | - |
| 1778190108 | 25° C | 32% | 1009.8 hPa | 0 mm | - | - | - |
| 1778188310 | 24.44° C | 35% | 1010.3 hPa | 0 mm | - | - | - |
| 1778184708 | 23.33° C | 38% | 1011.4 hPa | 0 mm | - | - | - |
| 1778182908 | 22.78° C | 39% | 1011.9 hPa | 0 mm | - | - | - |
| 1778181109 | 23.33° C | 40% | 1012.5 hPa | 0 mm | - | - | - |
| 1778177508 | 21.67° C | 41% | 1013.4 hPa | 0 mm | - | - | - |
| 1778175708 | 21.11° C | 43% | 1013.9 hPa | 0 mm | - | - | - |
| 1778173909 | 20.56° C | 43% | 1014.5 hPa | 0 mm | - | - | - |
| 1778170308 | 18.89° C | 46% | 1015.3 hPa | 0 mm | - | - | - |
| 1778164909 | 16.11° C | 52% | 1016.1 hPa | 0 mm | - | - | - |
| 1778163110 | 15° C | 58% | 1016.3 hPa | 0 mm | - | - | - |
| 1778161308 | 12.78° C | 69% | 1016.5 hPa | 0 mm | - | - | - |
| 1778159507 | 10° C | 83% | 1016.3 hPa | 0 mm | - | - | - |
| 1778154674 | 5° C | 92% | 1015.7 hPa | 0 mm | - | - | - |
| 1778152874 | 5° C | 91% | 1015.6 hPa | 0 mm | - | - | - |
| 1778151073 | 5° C | 91% | 1015.6 hPa | 0 mm | - | - | - |
* Rain latest hour (hover to see other rain measurements)
** Current wind speed in m/s (hover to see current wind gust speed)